Temperature
17 17 17 18 18 18 18 18 17 17 17 17 17 17 17 17 17 17 17 17 17 17 17 17 17 17 17 17 17 17 17 17 17 17 16 16 16 16 16 16 16 16 16
17 17 17 17 17 17 17 17 17 17 17 17 17 17 17 17 17 17 17 17 17 17 17 17 17 17 17 17 17 17 17 17 16 16 16 16 16 16 16 16 16 16 16
17 17 17 17 17 17 17 17 17 17 17 17 17 17 17 17 17 17 17 17 17 17 17 17 17 17 17 17 16 16 16 16 16 16 16 16 16 16 16 16 16 16 16
17 17 17 17 17 17 17 17 17 17 17 17 17 17 17 17 17 17 17 17 17 17 17 17 17 17 17 16 16 16 16 16 16 16 16 16 16 16 16 16 16 16 16
17 17 17 17 17 17 17 17 17 17 17 17 17 17 17 17 17 17 17 17 17 17 17 17 17 17 17 16 16 16 16 16 16 16 16 16 16 16 16 16 16 16 15
17 17 17 17 17 17 17 17 17 17 17 17 17 17 17 17 17 17 17 17 17 17 17 17 17 17 17 16 16 16 16 16 16 16 16 16 16 16 16 16 16 15 15
17 17 17 17 17 17 17 17 17 17 17 17 17 17 17 17 17 17 17 17 17 17 17 17 17 17 17 17 16 16 16 16 16 16 16 16 16 16 16 16 16 15 15
17 17 17 17 17 17 17 17 17 17 17 17 17 17 17 17 17 17 17 17 17 17 17 17 17 17 16 16 16 16 16 16 16 16 16 16 16 16 16 16 16 15 15
17 17 17 17 17 17 17 17 17 17 17 17 17 17 17 17 17 17 17 17 17 17 17 17 17 16 16 16 16 16 16 16 16 16 16 16 16 16 16 15 15 15 15
17 17 17 17 17 17 17 17 17 17 17 17 17 17 17 16 16 17 17 17 17 17 17 17 16 16 16 16 16 16 16 16 16 16 16 16 16 16 15 15 15 15 15
17 17 17 17 17 17 17 17 17 17 17 17 17 17 17 16 16 16 16 17 17 17 17 16 16 16 16 16 16 16 16 16 16 16 16 16 16 16 15 15 15 15 15
17 17 17 17 17 17 17 17 17 17 17 17 17 17 17 17 17 16 16 16 17 17 17 17 17 16 16 16 16 16 16 16 16 16 16 16 16 16 15 15 15 15 15
17 17 17 17 17 17 17 17 17 17 17 17 17 17 17 16 16 16 16 16 16 16 16 17 17 17 16 16 16 16 16 16 16 16 16 16 16 16 15 15 15 15 15
18 18 17 17 17 17 17 17 17 17 17 17 17 17 16 16 16 16 16 16 16 16 16 16 16 16 16 16 16 16 16 16 16 16 16 16 16 16 15 15 15 15 15
18 18 17 17 17 17 17 17 17 17 17 17 16 16 16 16 16 16 16 16 16 15 16 16 16 16 16 16 16 16 16 16 16 16 16 16 15 16 15 15 15 15 15
17 17 17 17 17 17 17 17 17 17 16 16 16 16 16 16 16 16 16 16 16 16 15 16 16 16 16 16 16 16 16 16 16 16 15 15 15 15 15 15 15 15 15
17 17 17 17 17 17 17 17 16 16 16 16 16 16 16 16 16 16 16 16 16 15 15 16 16 16 16 16 16 16 15 15 15 15 15 15 15 15 15 15 15 15 15
17 17 17 17 17 17 17 17 17 16 16 16 16 16 16 16 16 16 16 16 16 15 15 15 16 16 16 15 15 15 15 15 15 15 15 15 15 15 15 15 15 14 14
17 17 17 17 17 17 17 17 17 17 16 16 16 16 16 16 16 16 16 15 15 15 15 15 15 15 15 15 15 15 15 15 15 15 15 15 15 15 15 14 14 14 14
17 17 17 17 17 17 17 17 16 16 16 16 16 16 16 16 16 15 15 15 15 15 15 15 15 15 15 15 15 15 15 15 15 15 15 15 14 14 14 14 14 14 14
17 17 17 17 17 17 17 16 16 16 16 16 16 16 16 16 15 15 15 15 15 15 15 15 15 15 15 15 14 14 14 14 15 15 14 14 14 14 14 14 14 14 14
17 17 17 17 17 17 16 16 16 16 16 16 16 16 16 15 15 15 15 15 15 15 15 15 14 14 14 14 14 14 14 14 14 14 14 14 14 14 14 14 14 14 13
17 16 16 16 16 16 16 16 16 15 16 15 15 15 15 15 15 15 15 15 15 15 14 14 14 14 14 14 14 14 14 14 14 14 13 14 14 14 14 14 14 13 13
16 16 16 16 16 16 16 15 15 15 15 15 15 15 15 15 15 15 15 15 15 14 14 14 14 14 14 14 14 14 13 13 13 13 13 13 13 13 13 13 13 13 13
16 16 16 16 15 15 15 15 15 15 15 15 14 14 14 14 14 14 14 14 14 14 14 14 14 14 14 14 13 13 13 13 13 13 13 12 13 13 13 13 13 13 13
15 15 15 15 15 15 15 15 15 14 14 14 14 14 14 14 14 14 14 14 14 14 14 14 14 14 13 13 13 13 13 13 13 12 12 12 12 12 12 12 13 13 13
Wind_Speed
2 2 1 2 3 3 3 3 3 3 3 3 3 4 5 6 6 6 7 9 10 10 10 10 10 10 10 10 10 10 9 9 10 10 9 8 8 8 8 8 8 8 7
2 2 2 2 2 3 3 3 3 3 3 3 3 3 4 5 6 6 6 7 9 9 10 10 10 10 10 11 10 10 10 10 9 9 9 8 8 8 8 7 7 7 8
3 2 2 2 2 3 3 3 4 4 3 3 3 3 3 3 4 5 6 6 7 9 10 10 10 10 10 10 10 10 10 9 9 9 9 8 8 8 8 7 7 7 7
4 3 2 2 3 3 3 3 3 3 3 2 2 1 2 2 3 4 5 6 6 6 8 10 10 11 11 10 10 9 9 9 9 9 9 9 8 8 8 7 7 7 7
4 4 3 2 3 3 3 3 3 3 3 2 2 1 1 1 1 3 3 5 6 6 6 8 9 10 10 10 9 8 8 8 9 9 9 10 9 9 9 8 8 8 8
4 4 3 2 3 3 3 3 4 3 3 2 2 1 1 1 0 1 2 3 4 6 7 7 7 8 9 9 9 9 9 9 9 9 10 10 10 9 9 10 10 9 8
4 4 3 3 3 3 3 3 3 4 2 2 2 1 2 1 1 1 1 2 3 4 5 6 6 6 6 8 9 9 10 10 10 10 10 10 10 9 10 10 10 10 10
4 4 4 3 3 3 3 3 3 3 2 2 2 1 1 2 1 1 1 2 2 3 4 5 5 6 6 6 7 9 10 10 10 10 10 10 10 10 10 11 11 11 10
3 3 3 3 3 3 3 3 3 3 2 1 1 2 2 1 1 1 0 1 2 2 3 4 5 5 6 6 7 8 9 9 9 9 9 10 11 11 10 10 11 11 11
3 3 3 3 3 3 3 3 3 2 3 2 1 1 1 2 1 1 1 1 1 2 3 3 4 5 6 6 7 8 9 10 9 9 9 9 10 11 11 11 11 11 10
1 3 3 3 3 2 3 2 3 3 2 3 2 1 1 1 1 1 2 2 1 1 2 3 3 4 5 6 6 8 9 9 9 9 8 8 9 10 10 11 11 10 10
0 1 3 3 3 2 3 3 3 3 3 3 2 2 2 2 2 2 3 2 2 1 1 2 3 4 5 5 7 8 9 10 10 10 10 10 10 9 10 10 11 11 10
1 2 2 2 2 3 3 3 3 3 3 3 3 2 2 2 2 2 2 1 1 1 1 1 2 4 5 5 6 8 9 9 10 10 11 11 11 10 10 10 10 10 10
3 3 3 3 3 3 3 3 2 2 2 3 3 3 2 2 2 3 3 2 1 1 1 2 1 3 4 5 6 7 7 9 10 10 11 11 11 11 11 10 10 9 9
3 3 3 3 3 3 3 3 2 3 2 3 3 3 2 2 2 3 3 3 3 2 3 2 2 2 3 5 6 6 7 7 9 9 10 11 11 11 11 10 10 9 9
3 3 3 3 3 3 3 3 2 2 3 2 2 2 2 2 2 2 3 3 3 3 3 2 3 3 3 4 5 6 7 8 9 9 9 10 10 11 11 10 10 10 10
3 3 4 3 3 4 4 3 3 2 3 2 2 3 3 3 3 3 2 3 3 3 4 4 2 2 3 3 3 4 5 6 6 8 9 10 10 10 10 10 10 10 10
3 4 4 4 4 4 4 5 5 4 4 4 4 3 4 3 3 3 3 3 4 4 4 5 3 2 3 3 2 3 3 4 5 7 9 10 10 10 11 11 10 10 10
3 4 4 4 4 4 5 5 5 5 4 5 4 4 4 3 3 3 3 3 3 4 4 4 4 2 2 2 2 2 2 2 4 5 8 9 10 11 11 11 11 11 11
4 4 4 5 5 5 5 5 5 4 4 4 5 5 5 5 6 5 4 4 4 3 3 4 4 3 3 2 1 2 3 2 3 3 4 6 8 10 11 12 12 12 13
4 3 4 4 4 5 5 5 5 5 5 5 4 5 5 6 6 6 5 5 5 4 3 3 4 3 3 2 2 2 3 3 3 3 3 3 4 5 7 9 11 13 14
3 3 3 4 5 5 6 7 6 5 5 5 5 5 5 5 6 7 7 7 7 6 5 5 4 5 5 4 3 3 3 2 3 2 2 3 3 4 5 7 10 12 14
4 4 4 4 5 6 6 6 7 5 5 5 5 5 5 4 5 5 6 6 6 6 7 6 6 7 6 5 4 4 4 4 5 3 2 4 3 5 6 8 11 13 14
4 4 4 4 5 6 5 5 5 5 5 5 5 5 5 4 3 4 4 4 4 5 6 6 6 7 6 5 5 5 5 4 4 3 3 4 4 5 6 7 10 13 15
4 4 3 4 4 4 3 4 4 3 3 4 4 4 4 5 5 4 4 4 4 4 4 5 6 5 5 5 4 2 2 2 4 4 3 3 3 4 4 6 8 12 14
3 2 2 2 2 3 2 2 3 3 3 3 3 3 4 5 4 4 4 4 5 5 3 3 3 4 4 4 5 5 5 4 3 4 3 3 3 2 4 4 5 6 8
Wind_Direction
114 117 127 118 111 116 118 114 110 119 120 121 140 151 156 165 172 177 180 187 191 194 196 197 196 194 194 195 196 197 195 194 197 200 203 206 207 209 207 206 207 209 209
148 142 130 125 131 141 141 131 126 125 126 128 132 146 158 166 170 174 182 186 193 198 200 203 203 203 204 203 202 205 202 201 201 202 204 207 211 216 214 207 205 210 214
169 156 132 135 148 143 132 116 109 110 116 121 126 139 147 160 170 178 183 187 194 202 205 208 209 208 209 207 206 206 204 204 205 207 208 211 213 216 213 207 211 213 212
163 150 132 136 150 140 134 125 123 118 117 118 122 127 134 151 172 182 187 188 194 202 207 210 212 213 213 212 212 210 208 209 210 211 212 215 218 217 211 208 212 215 219
159 154 142 144 136 127 128 132 124 128 125 120 113 90 88 152 187 192 194 196 196 199 206 213 214 216 216 217 218 216 217 220 217 216 219 221 222 221 220 217 214 218 222
157 154 146 132 126 121 121 119 118 110 113 116 105 68 22 348 259 211 214 206 198 202 210 214 216 218 219 222 223 219 218 221 221 220 224 225 224 223 223 219 216 219 220
155 156 147 133 130 130 131 126 117 111 105 105 90 48 12 5 305 256 235 217 212 207 208 214 217 219 223 225 228 226 225 226 227 227 229 229 228 227 224 220 219 221 223
160 162 149 142 139 132 127 127 123 119 106 115 123 109 8 356 340 264 226 217 226 218 219 222 220 220 224 229 230 229 231 233 236 235 234 231 230 227 224 223 222 222 225
156 159 150 146 146 147 153 151 144 142 154 161 127 143 145 226 325 347 269 224 213 218 228 228 228 228 227 229 232 232 232 235 238 241 238 232 231 230 227 226 225 224 226
149 159 155 152 147 146 154 166 153 156 156 173 145 140 156 155 156 334 342 295 230 228 235 234 240 235 232 229 229 230 233 233 238 243 241 233 228 226 227 227 228 228 229
145 164 164 159 151 153 156 156 151 167 171 174 173 159 152 136 166 194 278 307 308 246 234 236 241 241 238 232 232 234 235 235 237 239 240 236 229 227 227 229 229 230 230
143 169 168 165 166 167 170 174 174 180 188 186 181 174 170 169 179 188 227 258 273 277 245 237 238 241 241 236 239 238 239 239 241 240 240 240 234 231 231 233 233 231 231
211 224 190 167 169 181 176 168 171 188 191 188 194 198 199 207 185 179 191 233 270 294 296 258 235 235 240 238 244 241 242 243 242 241 241 238 235 232 232 233 234 235 235
212 207 194 189 184 177 173 163 177 196 185 198 214 203 202 220 200 197 188 182 249 303 291 269 263 234 238 239 246 243 245 246 243 243 240 236 235 234 233 233 232 234 236
209 193 192 194 190 175 168 167 187 202 191 201 213 208 213 226 210 211 203 196 199 256 283 273 269 271 251 243 247 242 242 247 245 244 239 236 234 231 229 228 229 232 235
205 191 193 196 190 185 180 180 198 205 188 207 205 205 220 227 218 214 211 210 210 218 256 266 255 274 274 268 256 245 246 248 247 244 240 238 234 227 224 225 228 231 235
199 200 203 198 200 201 193 189 209 204 204 220 218 211 228 219 216 221 216 210 213 211 242 270 255 266 260 269 279 255 250 244 246 243 240 240 235 228 224 224 227 232 235
217 212 204 202 207 207 200 199 208 207 208 220 228 223 237 229 225 228 220 223 222 219 227 260 272 266 257 262 278 271 266 253 249 249 241 236 233 231 229 229 231 232 232
222 214 204 208 214 212 206 208 205 209 215 223 226 224 234 223 234 235 228 235 237 231 226 240 263 262 260 265 281 279 272 264 259 254 241 237 236 234 233 232 231 231 231
223 223 217 217 217 215 212 212 209 212 216 224 227 228 230 224 229 232 233 237 237 236 232 238 255 264 263 261 257 265 281 273 276 272 251 248 242 239 236 233 231 231 231
230 229 223 226 223 219 220 212 213 216 218 227 235 238 238 232 227 227 232 231 226 230 235 241 253 261 262 254 256 245 265 281 276 253 267 266 254 249 243 235 232 233 232
226 222 230 231 232 234 220 207 205 218 221 226 240 248 248 246 242 236 235 230 219 223 230 235 246 252 258 251 248 243 253 274 282 248 250 274 249 252 250 240 237 234 234
221 228 237 235 239 240 226 215 209 218 229 235 240 246 253 256 247 250 249 244 238 232 224 226 238 247 253 246 235 240 240 247 258 255 237 272 261 259 259 251 243 239 237
220 229 236 238 241 248 233 221 216 222 236 244 243 240 244 261 260 248 249 253 255 251 239 232 238 247 251 249 234 237 241 250 265 249 217 257 266 266 267 257 247 239 235
221 226 228 231 236 254 235 210 196 212 231 250 255 249 243 250 261 236 233 250 266 273 264 246 245 252 252 246 231 221 228 245 270 263 219 237 263 275 271 262 251 241 240
227 225 231 231 231 255 264 218 195 208 229 246 257 258 251 250 255 229 226 239 256 267 277 283 280 278 266 251 227 222 221 230 255 262 223 220 252 265 273 261 260 254 249
Height
1528 1529 1530 1532 1534 1536 1538 1540 1543 1544 1546 1548 1550 1551 1552 1554 1555 1557 1558 1560 1561 1562 1564 1565 1567 1568 1569 1571 1571 1572 1574 1575 1575 1576 1577 1578 1579 1580 1581 1582 1583 1584 1584
1530 1531 1532 1533 1535 1537 1540 1542 1543 1545 1547 1549 1550 1551 1553 1554 1555 1556 1558 1559 1560 1562 1563 1564 1566 1567 1568 1569 1570 1571 1572 1573 1574 1575 1576 1577 1578 1579 1579 1580 1581 1582 1582
1531 1532 1533 1534 1536 1539 1541 1542 1544 1545 1547 1549 1550 1551 1552 1554 1555 1556 1557 1558 1559 1561 1562 1563 1564 1566 1567 1568 1569 1570 1571 1572 1573 1574 1574 1575 1576 1577 1578 1578 1579 1580 1581
1532 1533 1534 1535 1537 1539 1541 1543 1544 1546 1548 1549 1550 1551 1552 1553 1554 1555 1556 1557 1558 1559 1561 1562 1563 1565 1566 1567 1568 1569 1570 1570 1571 1572 1573 1573 1574 1575 1576 1577 1577 1578 1579
1534 1535 1536 1537 1538 1540 1542 1544 1545 1547 1548 1549 1550 1551 1552 1552 1553 1554 1554 1555 1557 1558 1560 1561 1562 1563 1565 1565 1566 1567 1568 1568 1569 1570 1571 1571 1572 1573 1574 1575 1575 1576 1577
1536 1537 1538 1539 1540 1541 1543 1544 1546 1547 1549 1550 1550 1551 1551 1552 1552 1553 1553 1554 1555 1556 1558 1560 1561 1562 1563 1564 1564 1565 1566 1566 1567 1568 1569 1569 1570 1571 1571 1572 1573 1574 1575
1537 1538 1539 1540 1542 1543 1544 1545 1547 1548 1549 1550 1551 1551 1552 1552 1552 1553 1553 1553 1554 1555 1557 1558 1559 1560 1561 1562 1563 1563 1564 1564 1565 1566 1566 1567 1568 1568 1569 1570 1571 1572 1572
1538 1539 1540 1541 1542 1544 1545 1546 1547 1548 1549 1550 1551 1551 1552 1553 1552 1553 1553 1553 1553 1554 1555 1556 1558 1558 1559 1560 1561 1561 1562 1562 1563 1564 1564 1565 1565 1566 1567 1567 1568 1569 1570
1539 1540 1541 1542 1543 1544 1545 1546 1548 1549 1549 1551 1551 1552 1551 1551 1552 1552 1552 1553 1553 1554 1554 1555 1556 1556 1557 1558 1558 1559 1560 1561 1561 1562 1562 1563 1563 1564 1564 1565 1566 1566 1567
1539 1540 1541 1542 1543 1544 1545 1546 1547 1548 1549 1550 1550 1551 1552 1552 1552 1552 1552 1552 1553 1553 1553 1554 1554 1555 1555 1556 1556 1557 1558 1558 1559 1559 1560 1560 1561 1561 1562 1562 1563 1564 1564
1540 1540 1541 1542 1543 1544 1545 1546 1547 1548 1548 1549 1550 1550 1550 1551 1551 1551 1551 1551 1552 1552 1552 1552 1553 1553 1553 1554 1554 1555 1556 1556 1556 1557 1557 1558 1558 1559 1559 1560 1560 1561 1561
1539 1540 1541 1542 1543 1543 1544 1545 1546 1546 1547 1548 1548 1549 1549 1550 1550 1550 1550 1549 1549 1550 1550 1551 1551 1551 1552 1552 1552 1553 1553 1554 1554 1555 1555 1555 1556 1556 1557 1557 1557 1558 1558
1539 1540 1540 1541 1542 1543 1543 1544 1545 1545 1546 1546 1547 1547 1548 1548 1548 1548 1548 1548 1548 1548 1548 1549 1549 1550 1550 1550 1550 1550 1551 1551 1551 1552 1552 1553 1553 1553 1554 1554 1554 1554 1555
1538 1539 1539 1540 1541 1541 1542 1542 1543 1543 1544 1544 1545 1545 1546 1546 1547 1547 1547 1547 1546 1546 1546 1547 1547 1547 1548 1548 1548 1548 1548 1548 1548 1549 1549 1549 1550 1550 1550 1550 1551 1551 1551
1536 1537 1538 1538 1539 1539 1540 1540 1541 1541 1542 1542 1543 1543 1544 1544 1544 1545 1545 1545 1546 1544 1544 1544 1545 1545 1545 1545 1545 1545 1545 1545 1545 1545 1545 1545 1546 1546 1546 1547 1547 1547 1547
1534 1535 1535 1536 1537 1537 1538 1538 1539 1539 1539 1540 1540 1541 1541 1541 1542 1542 1543 1543 1543 1543 1542 1541 1542 1542 1542 1542 1542 1541 1541 1541 1541 1541 1541 1541 1542 1542 1542 1542 1543 1543 1543
1531 1532 1533 1534 1534 1535 1535 1536 1536 1537 1537 1537 1538 1538 1538 1539 1539 1540 1540 1540 1540 1540 1539 1539 1539 1539 1539 1539 1538 1538 1538 1537 1537 1537 1537 1537 1538 1538 1538 1538 1538 1539 1539
1529 1530 1531 1531 1532 1533 1533 1533 1534 1534 1535 1535 1535 1536 1536 1536 1537 1537 1537 1537 1537 1537 1537 1536 1536 1536 1535 1535 1535 1534 1534 1534 1533 1533 1533 1533 1533 1534 1534 1534 1534 1534 1534
1526 1527 1528 1528 1529 1530 1531 1531 1531 1532 1532 1532 1533 1533 1533 1533 1533 1534 1534 1534 1534 1534 1533 1533 1532 1532 1532 1531 1531 1530 1530 1530 1530 1530 1529 1529 1529 1529 1529 1529 1529 1530 1530
1523 1524 1525 1526 1526 1527 1527 1528 1528 1529 1529 1529 1530 1530 1530 1530 1530 1530 1530 1530 1530 1530 1530 1529 1528 1528 1528 1527 1527 1526 1526 1526 1526 1526 1525 1525 1525 1524 1524 1524 1524 1525 1526
1520 1521 1522 1522 1523 1524 1524 1524 1525 1525 1525 1526 1526 1526 1527 1527 1527 1527 1527 1526 1526 1526 1526 1525 1525 1524 1524 1523 1523 1523 1523 1522 1522 1522 1521 1521 1520 1519 1519 1519 1520 1520 1521
1517 1518 1519 1519 1519 1520 1520 1521 1522 1522 1522 1522 1522 1522 1523 1523 1523 1523 1523 1523 1522 1522 1521 1521 1520 1520 1520 1520 1520 1519 1519 1518 1517 1518 1517 1516 1516 1515 1515 1515 1515 1515 1515
1513 1514 1515 1515 1515 1516 1516 1517 1518 1518 1518 1518 1518 1518 1518 1518 1518 1518 1518 1518 1518 1517 1517 1517 1516 1516 1516 1516 1516 1515 1515 1514 1514 1514 1513 1511 1512 1511 1511 1511 1510 1510 1510
1509 1509 1510 1511 1511 1511 1512 1513 1513 1514 1514 1514 1514 1514 1514 1514 1514 1514 1514 1513 1513 1513 1512 1512 1512 1512 1512 1512 1512 1512 1511 1510 1510 1509 1509 1507 1507 1507 1507 1506 1506 1505 1505
1505 1505 1505 1506 1507 1507 1508 1508 1509 1509 1508 1508 1509 1509 1509 1509 1509 1509 1509 1509 1508 1508 1508 1508 1508 1508 1508 1508 1508 1507 1506 1506 1504 1504 1504 1503 1502 1501 1501 1500 1501 1500 1500
1501 1501 1501 1502 1503 1503 1503 1504 1505 1504 1504 1504 1504 1504 1505 1504 1504 1505 1505 1504 1503 1503 1504 1504 1504 1504 1503 1503 1503 1502 1502 1501 1500 1499 1499 1499 1497 1497 1495 1494 1495 1495 1495